FW1757 Weather Reports


time (UTC)temp
F
wind
direction
speed
knots
gust
knots
rain 1hr
in
rain 24hr
in
rain mn
in
humidity
%
barometer
mb
20260504210045 75 269 0.0 0.0 0.00 0.00 0.00 50 1007.1
20260504205544 75 282 0.0 0.0 0.00 0.00 0.00 50 1007.1
20260504205044 75 264 0.0 0.0 0.00 0.00 0.00 50 1007.2
20260504204544 74 271 0.0 0.0 0.00 0.00 0.00 52 1007.2
20260504204042 74 262 0.0 0.0 0.00 0.00 0.00 51 1007.2
20260504203542 74 275 0.0 0.0 0.00 0.00 0.00 51 1007.2
20260504203042 74 295 0.0 0.0 0.00 0.00 0.00 50 1007.3
20260504202542 74 281 0.0 0.0 0.00 0.00 0.00 50 1007.2
20260504202042 74 285 0.0 0.0 0.00 0.00 0.00 53 1007.3
20260504201540 74 265 0.0 0.0 0.00 0.00 0.00 51 1007.5
20260504201043 74 306 0.0 0.0 0.00 0.00 0.00 51 1007.4
20260504200540 74 288 0.0 0.0 0.00 0.00 0.00 51 1007.5
20260504200043 73 289 0.0 0.0 0.00 0.00 0.00 52 1007.5
20260504195538 73 289 0.0 0.0 0.00 0.00 0.00 55 1007.6
20260504195036 73 271 0.0 0.0 0.00 0.00 0.00 51 1007.7
20260504194540 73 288 0.0 0.0 0.00 0.00 0.00 52 1007.6
20260504194034 72 214 0.0 0.0 0.00 0.00 0.00 53 1007.6
20260504193534 72 263 0.0 0.0 0.00 0.00 0.00 54 1007.7
20260504193032 72 276 0.0 0.0 0.00 0.00 0.00 54 1007.8
20260504192533 72 286 0.0 0.0 0.00 0.00 0.00 55 1007.8
20260504192030 71 252 0.0 0.0 0.00 0.00 0.00 55 1007.9
20260504191546 71 286 0.0 0.0 0.00 0.00 0.00 53 1007.9
20260504191029 71 294 0.0 0.0 0.00 0.00 0.00 57 1007.9
20260504190528 71 309 0.0 0.0 0.00 0.00 0.00 57 1008.0
20260504190027 71 284 0.0 0.0 0.00 0.00 0.00 59 1008.0
20260504185525 70 263 0.0 0.0 0.00 0.00 0.00 57 1008.0
20260504185025 70 304 0.0 0.0 0.00 0.00 0.00 57 1008.1
20260504184524 69 275 0.0 0.0 0.00 0.00 0.00 59 1008.0
20260504184025 69 255 0.0 0.0 0.00 0.00 0.00 59 1008.1
20260504183521 69 297 0.0 0.0 0.00 0.00 0.00 58 1008.1
20260504183036 69 311 0.0 0.0 0.00 0.00 0.00 58 1008.1
20260504182520 69 290 0.0 0.0 0.00 0.00 0.00 57 1008.0
20260504182022 69 298 0.0 0.0 0.00 0.00 0.00 59 1008.1
20260504181524 68 305 0.0 0.0 0.00 0.00 0.00 59 1008.2
20260504181017 68 282 0.0 0.0 0.00 0.00 0.00 61 1008.1
20260504180517 68 272 0.0 0.0 0.00 0.00 0.00 60 1008.2
20260504180020 67 328 0.0 0.0 0.00 0.00 0.00 60 1008.2
20260504175515 67 292 0.0 0.0 0.00 0.00 0.00 60 1008.1
20260504175014 67 308 0.0 0.0 0.00 0.00 0.00 62 1008.1
20260504174515 67 302 0.0 0.0 0.00 0.00 0.00 61 1008.1
20260504174013 66 302 0.0 0.0 0.00 0.00 0.00 61 1008.2
20260504173512 66 257 0.0 0.0 0.00 0.00 0.00 62 1008.1
20260504173009 66 281 0.0 0.0 0.00 0.00 0.00 62 1008.1
20260504172510 66 313 0.0 0.0 0.00 0.00 0.00 62 1008.0
20260504172009 65 287 0.0 0.0 0.00 0.00 0.00 62 1008.1
20260504171507 65 286 0.0 0.0 0.00 0.00 0.00 63 1008.1
20260504171010 65 290 0.0 0.0 0.00 0.00 0.00 64 1008.1
20260504170508 65 306 0.0 0.0 0.00 0.00 0.00 63 1008.1
20260504151050 59 321 0.0 0.0 0.00 0.00 0.00 63 1008.2
20260504150552 59 300 0.0 0.0 0.00 0.00 0.00 63 1008.2
20260504141046 57 269 0.0 0.0 0.00 0.00 0.00 64 1007.8
20260504140546 57 221 0.0 0.0 0.00 0.00 0.00 65 1007.7
20260504130542 54 264 0.0 0.0 0.00 0.00 0.00 61 1007.1
20260504110531 57 179 0.0 0.0 0.00 0.00 0.00 67 1007.0
20260504100529 56 128 0.0 0.0 0.00 0.00 0.00 67 1007.0
20260504081522 58 123 0.0 0.0 0.00 0.00 0.00 66 1007.1
20260504081018 58 123 0.0 0.0 0.00 0.00 0.00 66 1007.2
20260504080517 59 123 0.0 0.0 0.00 0.00 0.00 66 1007.2
20260504050506 66 123 0.0 0.0 0.00 0.00 0.00 52 1006.7
20260504050005 67 123 0.0 0.0 0.00 0.00 0.00 52 1006.7
20260504045504 67 123 0.0 0.0 0.00 0.00 0.00 51 1006.6
20260504045003 68 123 0.0 0.0 0.00 0.00 0.00 51 1006.5
20260504044505 68 123 0.0 0.0 0.00 0.00 0.00 49 1006.5
20260504044100 69 123 0.0 0.0 0.00 0.00 0.00 48 1006.5
20260504043559 69 123 0.0 0.0 0.00 0.00 0.00 47 1006.5
20260504043101 70 123 0.0 0.0 0.00 0.00 0.00 46 1006.5
20260504042557 71 123 0.0 0.0 0.00 0.00 0.00 45 1006.4
20260504042058 71 123 0.0 0.0 0.00 0.00 0.00 43 1006.3
20260504041552 72 123 0.0 0.0 0.00 0.00 0.00 42 1006.3
20260504041051 73 123 0.0 0.0 0.00 0.00 0.00 44 1006.2
20260504040550 74 123 0.0 0.0 0.00 0.00 0.00 40 1006.2
20260504035551 75 123 0.0 0.0 0.00 0.00 0.00 37 1005.9
20260504035049 75 123 0.0 0.0 0.00 0.00 0.00 37 1005.9
20260504034556 75 123 0.0 0.0 0.00 0.00 0.00 36 1005.9
20260504034046 76 123 0.0 0.0 0.00 0.00 0.00 36 1005.8
20260504033541 76 123 0.0 0.0 0.00 0.00 0.00 36 1005.8
20260504033059 76 138 0.0 0.0 0.00 0.00 0.00 36 1005.8
20260504032538 76 138 0.0 0.0 0.00 0.00 0.00 36 1005.7
20260504032038 76 138 0.0 0.0 0.00 0.00 0.00 37 1005.7
20260504031536 77 138 0.0 0.0 0.00 0.00 0.00 37 1005.7
20260504031035 77 138 0.0 0.0 0.00 0.00 0.00 36 1005.7
20260504030532 78 138 0.0 0.0 0.00 0.00 0.00 38 1005.6
20260504030041 78 145 0.0 0.0 0.00 0.00 0.00 36 1005.7
20260504025534 79 145 0.0 0.0 0.00 0.00 0.00 39 1005.6
20260504025030 80 145 0.0 0.0 0.00 0.00 0.00 37 1005.6
20260504024527 81 145 0.0 0.0 0.00 0.00 0.00 35 1005.7
20260504024025 83 145 0.0 0.0 0.00 0.00 0.00 37 1005.7
20260504023524 84 145 0.0 0.0 0.00 0.00 0.00 36 1005.6
20260504023025 84 145 0.0 0.0 0.00 0.00 0.00 31 1005.6
20260504022521 85 145 0.0 0.0 0.00 0.00 0.00 30 1005.6
20260504022018 85 145 0.0 0.0 0.00 0.00 0.00 28 1005.7
20260504021517 86 146 0.0 0.0 0.00 0.00 0.00 27 1005.7
20260504021016 86 146 0.0 0.0 0.00 0.00 0.00 27 1005.8
20260504020514 87 146 0.0 0.0 0.00 0.00 0.00 27 1005.9
20260504020013 87 146 0.0 0.0 0.00 0.00 0.00 28 1005.9
20260504015513 88 146 0.0 0.0 0.00 0.00 0.00 27 1005.9
20260504015010 88 146 0.0 0.0 0.00 0.00 0.00 26 1006.0
20260504014524 88 143 0.0 0.0 0.00 0.00 0.00 27 1006.0
20260504014010 89 142 0.0 0.0 0.00 0.00 0.00 27 1006.1
20260504013506 89 142 0.0 0.0 0.00 0.00 0.00 26 1006.1
20260504013005 89 144 0.0 0.0 0.00 0.00 0.00 26 1006.2
20260504012503 89 144 0.0 0.0 0.00 0.00 0.00 25 1006.2
20260504012002 89 142 0.0 0.0 0.00 0.00 0.00 25 1006.2
20260504011601 89 140 0.0 0.0 0.00 0.00 0.00 25 1006.3
20260504011059 90 140 0.0 0.0 0.00 0.00 0.00 24 1006.3
20260504010557 90 149 0.0 0.0 0.00 0.00 0.00 24 1006.4
20260504010111 91 142 0.0 0.0 0.00 0.00 0.00 23 1006.6
20260504005559 91 62 0.0 0.0 0.00 0.00 0.00 25 1006.6
20260504005053 91 46 0.0 0.0 0.00 0.00 0.00 25 1006.6
20260504004612 91 42 0.0 0.0 0.00 0.00 0.00 25 1006.7
20260504004052 91 36 0.0 0.0 0.00 0.00 0.00 26 1006.8
20260504003552 91 134 0.0 0.0 0.00 0.00 0.00 25 1006.8
20260504003047 91 138 0.0 0.0 0.00 0.00 0.00 25 1006.8
20260504002546 91 138 0.0 0.0 0.00 0.00 0.00 25 1006.8
20260504002045 91 138 0.0 0.0 0.00 0.00 0.00 24 1006.8
20260504001544 91 142 0.0 0.0 0.00 0.00 0.00 24 1006.9
20260504001042 91 85 0.0 0.0 0.00 0.00 0.00 26 1007.0
20260504000541 91 61 0.0 0.0 0.00 0.00 0.00 26 1007.0
20260504000039 91 53 0.0 0.0 0.00 0.00 0.00 24 1007.0
20260503235537 91 36 0.0 0.0 0.00 0.00 0.00 25 1007.1
20260503235036 91 48 0.0 0.0 0.00 0.00 0.00 25 1007.1
20260503234541 91 28 0.0 0.0 0.00 0.00 0.00 25 1007.1
20260503234033 91 82 0.0 0.0 0.00 0.00 0.00 25 1007.2
20260503233531 91 85 0.0 0.0 0.00 0.00 0.00 25 1007.2
20260503233030 91 76 0.0 0.0 0.00 0.00 0.00 26 1007.3
20260503232528 91 80 0.0 0.0 0.00 0.00 0.00 25 1007.4
20260503232027 91 78 0.0 0.0 0.00 0.00 0.00 26 1007.6
20260503231530 91 73 0.0 0.0 0.00 0.00 0.00 28 1007.5
20260503231025 91 161 0.0 0.0 0.00 0.00 0.00 27 1007.7
20260503230523 90 160 0.0 0.0 0.00 0.00 0.00 26 1007.7
20260503230021 90 177 0.0 0.0 0.00 0.00 0.00 24 1007.8
20260503225520 89 157 0.0 0.0 0.00 0.00 0.00 26 1007.9
20260503225019 89 166 0.0 0.0 0.00 0.00 0.00 26 1008.1
20260503224517 89 93 0.0 0.0 0.00 0.00 0.00 25 1008.2
20260503224015 89 119 0.0 0.0 0.00 0.00 0.00 27 1008.2
20260503223513 88 161 0.0 0.0 0.00 0.00 0.00 28 1008.4
20260503223113 88 144 0.0 0.0 0.00 0.00 0.00 26 1008.4
20260503222510 88 136 0.0 0.0 0.00 0.00 0.00 28 1008.6
20260503222009 88 84 0.0 0.0 0.00 0.00 0.00 30 1008.6
20260503221508 88 74 0.0 0.0 0.00 0.00 0.00 30 1008.9
20260503221006 88 95 0.0 0.0 0.00 0.00 0.00 27 1008.8
20260503220508 88 119 0.0 0.0 0.00 0.00 0.00 26 1008.9
20260503220004 88 62 0.0 0.0 0.00 0.00 0.00 26 1008.9
20260503215501 88 62 0.0 0.0 0.00 0.00 0.00 29 1009.0
20260503215100 87 157 0.0 0.0 0.00 0.00 0.00 27 1009.0
20260503214601 87 114 0.0 0.0 0.00 0.00 0.00 29 1009.1
20260503214100 86 131 0.0 0.0 0.00 0.00 0.00 29 1009.2
20260503213556 86 104 0.0 0.0 0.00 0.00 0.00 28 1009.3
20260503213106 86 166 0.0 0.0 0.00 0.00 0.00 27 1009.4
20260503212555 86 125 0.0 0.0 0.00 0.00 0.00 29 1009.4
20260503212051 86 157 0.0 0.0 0.00 0.00 0.00 28 1009.7
20260503211551 86 155 0.0 0.0 0.00 0.00 0.00 27 1009.7
20260503211048 86 34 0.0 0.0 0.00 0.00 0.00 29 1009.8
20260503210550 86 94 0.0 0.0 0.00 0.00 0.00 28 1009.9